SV2BZQ-2 Weather Reports


time (UTC)temp
C
wind
direction
speed
KPH
gust
KPH
rain 1hr
cm
rain 24hr
cm
rain mn
cm
humidity
%
barometer
mb
20260504021559 5 336 4.8 11.3 0.00 0.05 0.00 82 1017.9
20260504021310 6 297 3.2 8.0 0.00 0.05 0.00 82 1017.9
20260504020913 6 303 3.2 8.0 0.00 0.05 0.00 82 1017.9
20260504020618 6 298 3.2 6.4 0.00 0.05 0.00 82 1017.9
20260504020429 6 304 4.8 6.4 0.00 0.05 0.00 82 1017.9
20260504020348 6 326 4.8 8.0 0.00 0.05 0.00 82 1017.9
20260504020132 6 300 4.8 9.7 0.00 0.05 0.00 82 1017.9
20260504015939 6 312 4.8 9.7 0.00 0.05 0.00 82 1017.9
20260504015920 6 312 4.8 9.7 0.00 0.05 0.00 82 1017.9
20260504015734 6 299 6.4 9.7 0.00 0.05 0.00 82 1017.9
20260504015546 5 331 6.4 9.7 0.00 0.05 0.00 82 1017.9
20260504015344 5 306 6.4 9.7 0.00 0.05 0.00 82 1018.0
20260504015314 5 313 6.4 11.3 0.00 0.05 0.00 82 1018.0
20260504015126 5 309 6.4 11.3 0.00 0.05 0.00 82 1017.9
20260504014932 5 288 6.4 11.3 0.00 0.05 0.00 82 1018.0
20260504014849 5 321 6.4 11.3 0.00 0.05 0.00 82 1018.0
20260504014728 5 319 4.8 11.3 0.00 0.05 0.00 82 1017.9
20260504014533 5 303 6.4 11.3 0.00 0.05 0.00 82 1018.0
20260504014412 5 309 6.4 11.3 0.00 0.05 0.00 81 1017.8
20260504014332 5 323 6.4 11.3 0.00 0.05 0.00 82 1017.8
20260504014130 5 321 6.4 11.3 0.00 0.05 0.00 82 1017.9
20260504013935 5 306 6.4 11.3 0.00 0.05 0.00 81 1017.9
20260504013846 5 300 6.4 11.3 0.00 0.05 0.00 81 1017.9
20260504013730 17 320 1.6 3.2 0.00 0.05 0.05 44 1015.1
20260504013701 5 313 6.4 11.3 0.00 0.05 0.00 81 1017.9
20260504013458 5 307 6.4 11.3 0.00 0.05 0.00 81 1017.9
20260504013346 5 319 6.4 9.7 0.00 0.05 0.00 81 1017.8
20260504013312 5 339 6.4 9.7 0.00 0.05 0.00 81 1017.8
20260504013118 5 294 6.4 9.7 0.00 0.05 0.00 80 1017.8
20260504012929 6 322 6.4 12.9 0.00 0.05 0.00 81 1017.7
20260504012854 6 326 6.4 12.9 0.00 0.05 0.00 80 1017.7
20260504012730 6 346 6.4 12.9 0.00 0.05 0.00 80 1017.8
20260504012529 6 297 6.4 12.9 0.00 0.05 0.00 80 1017.7
20260504012418 6 300 6.4 12.9 0.00 0.05 0.00 80 1017.8
20260504012355 6 296 6.4 12.9 0.00 0.05 0.00 80 1017.8
20260504012204 6 299 6.4 12.9 0.00 0.05 0.00 80 1017.7
20260504012031 6 281 6.4 11.3 0.00 0.05 0.00 80 1017.6
20260504011952 6 303 6.4 11.3 0.00 0.05 0.00 80 1017.6
20260504011844 6 304 6.4 11.3 0.00 0.05 0.00 80 1017.6
20260504011706 6 288 6.4 11.3 0.00 0.05 0.00 80 1017.6
20260504011555 6 306 6.4 11.3 0.00 0.05 0.00 79 1017.6
20260504011525 6 319 6.4 11.3 0.00 0.05 0.00 79 1017.6
20260504011311 6 305 6.4 11.3 0.00 0.05 0.00 79 1017.5
20260504011112 6 314 6.4 12.9 0.00 0.05 0.00 79 1017.5
20260504010957 6 315 6.4 12.9 0.00 0.05 0.00 78 1017.5
20260504010845 6 313 6.4 12.9 0.00 0.05 0.00 78 1017.3
20260504010750 6 323 6.4 12.9 0.00 0.05 0.00 78 1017.4
20260504010716 6 311 6.4 12.9 0.00 0.05 0.00 78 1017.4
20260504010536 6 321 6.4 12.9 0.00 0.05 0.00 78 1017.4
20260504010406 6 307 4.8 9.7 0.00 0.05 0.00 77 1017.3
20260504010003 7 330 4.8 9.7 0.00 0.05 0.00 77 1017.3
20260504005817 7 317 4.8 9.7 0.00 0.05 0.00 77 1017.2
20260504005400 7 313 4.8 9.7 0.00 0.05 0.00 76 1017.2
20260504005221 7 297 4.8 11.3 0.00 0.05 0.00 76 1017.2
20260504004821 7 325 4.8 12.9 0.00 0.05 0.00 76 1017.2
20260504004633 7 307 4.8 12.9 0.00 0.05 0.00 76 1017.2
20260504004448 7 300 4.8 12.9 0.00 0.05 0.00 76 1017.2
20260504004400 7 309 4.8 12.9 0.00 0.05 0.00 75 1017.2
20260504004259 7 298 4.8 12.9 0.00 0.05 0.00 75 1017.2
20260504004040 7 334 4.8 12.9 0.00 0.05 0.00 75 1017.2
20260504003823 8 290 3.2 8.0 0.00 0.05 0.00 75 1017.1
20260504003816 8 275 3.2 8.0 0.00 0.05 0.00 75 1017.1
20260504003617 8 331 3.2 8.0 0.00 0.05 0.00 75 1017.1
20260504003427 8 279 1.6 6.4 0.00 0.05 0.00 75 1017.0
20260504003334 8 310 1.6 6.4 0.00 0.05 0.00 75 1017.1
20260504003238 8 269 1.6 6.4 0.00 0.05 0.00 75 1017.1
20260504003048 8 296 1.6 6.4 0.00 0.05 0.00 75 1017.1
20260504002846 8 286 1.6 6.4 0.00 0.05 0.00 75 1017.1
20260504002617 8 306 1.6 3.2 0.00 0.05 0.00 75 1017.0
20260504002547 18 327 6.4 12.9 0.00 0.05 0.05 42 1014.9
20260504002423 8 306 1.6 3.2 0.00 0.05 0.00 75 1017.1
20260504002319 8 306 1.6 3.2 0.00 0.05 0.00 75 1017.1
20260504002216 8 306 1.6 3.2 0.00 0.05 0.00 75 1017.1
20260504002024 8 306 0.0 3.2 0.00 0.05 0.00 75 1017.1
20260504001841 8 306 0.0 3.2 0.00 0.05 0.00 75 1017.1
20260504001653 8 306 0.0 4.8 0.00 0.05 0.00 74 1017.1
20260504001529 8 331 1.6 6.4 0.00 0.05 0.00 74 1017.1
20260504001446 8 331 1.6 6.4 0.00 0.05 0.00 74 1017.1
20260504001353 8 331 1.6 6.4 0.00 0.05 0.00 74 1017.1
20260504001229 8 331 3.2 6.4 0.00 0.05 0.00 74 1017.2
20260504001042 8 333 3.2 6.4 0.00 0.05 0.00 74 1017.2
20260504001026 8 333 3.2 6.4 0.00 0.05 0.00 74 1017.1
20260504000850 8 291 1.6 4.8 0.00 0.05 0.00 74 1017.2
20260504000740 8 291 1.6 4.8 0.00 0.05 0.00 74 1017.2
20260504000713 8 291 1.6 4.8 0.00 0.05 0.00 74 1017.2
20260504000612 8 294 1.6 4.8 0.00 0.05 0.00 74 1017.2
20260504000431 8 286 1.6 4.8 0.00 0.05 0.00 74 1017.2
20260504000027 8 302 1.6 4.8 0.00 0.05 0.00 73 1017.1
20260503235911 8 302 1.6 4.8 0.00 0.05 0.00 73 1017.1
20260503235720 8 302 1.6 4.8 0.00 0.05 0.00 73 1017.2
20260503235637 8 301 1.6 4.8 0.00 0.05 0.00 73 1017.2
20260503235530 8 301 1.6 4.8 0.00 0.05 0.00 73 1017.2
20260503235350 8 313 0.0 4.8 0.00 0.05 0.00 73 1017.2
20260503234931 8 329 0.0 1.6 0.00 0.05 0.00 73 1017.2
20260503234809 8 329 0.0 4.8 0.00 0.05 0.00 73 1017.2
20260503234520 8 329 0.0 4.8 0.00 0.05 0.00 73 1017.2
20260503234429 8 329 1.6 4.8 0.00 0.05 0.00 73 1017.2
20260503234332 8 329 1.6 6.4 0.00 0.05 0.00 73 1017.2
20260503234132 8 325 1.6 6.4 0.00 0.05 0.00 73 1017.2
20260503233954 8 316 1.6 6.4 0.00 0.05 0.00 73 1017.2
20260503233905 8 325 1.6 6.4 0.00 0.05 0.00 73 1017.2
20260503233733 8 281 1.6 6.4 0.00 0.05 0.00 73 1017.2
20260503233551 8 286 1.6 6.4 0.00 0.05 0.00 73 1017.3
20260503233502 8 314 1.6 6.4 0.00 0.05 0.00 73 1017.3
20260503233401 8 291 0.0 4.8 0.00 0.05 0.00 73 1017.3
20260503233100 8 311 1.6 4.8 0.00 0.05 0.00 73 1017.4
20260503232951 8 311 1.6 4.8 0.00 0.05 0.00 73 1017.4
20260503232903 8 311 1.6 4.8 0.00 0.05 0.00 73 1017.3
20260503232743 8 311 1.6 4.8 0.00 0.05 0.00 72 1017.3
20260503232553 8 279 1.6 4.8 0.00 0.05 0.00 72 1017.4
20260503232120 8 316 1.6 3.2 0.00 0.05 0.00 72 1017.4
20260503231945 8 316 1.6 4.8 0.00 0.05 0.00 72 1017.4
20260503231758 8 315 1.6 4.8 0.00 0.05 0.00 72 1017.4
20260503231725 8 316 1.6 4.8 0.00 0.05 0.00 72 1017.4
20260503231602 8 355 1.6 4.8 0.00 0.05 0.00 72 1017.4
20260503231310 9 331 3.2 4.8 0.00 0.05 0.00 72 1017.5
20260503231211 9 331 3.2 4.8 0.00 0.05 0.00 72 1017.5
20260503231157 18 351 4.8 14.5 0.00 0.05 0.05 41 1014.8
20260503231057 9 330 3.2 6.4 0.00 0.05 0.00 72 1017.5
20260503230907 9 315 3.2 6.4 0.00 0.05 0.00 72 1017.4
20260503230721 9 281 3.2 6.4 0.00 0.05 0.00 71 1017.4
20260503230653 9 309 3.2 6.4 0.00 0.05 0.00 71 1017.4
20260503230528 9 355 3.2 6.4 0.00 0.05 0.00 71 1017.3
20260503230318 9 322 3.2 6.4 0.00 0.05 0.00 71 1017.4
20260503230248 9 315 3.2 6.4 0.00 0.05 0.00 71 1017.4
20260503230143 9 301 3.2 6.4 0.00 0.05 0.00 71 1017.3
20260503230010 9 295 1.6 4.8 0.00 0.05 0.00 71 1017.3
20260503225856 9 294 1.6 4.8 0.00 0.05 0.00 71 1017.1
20260503225815 9 294 1.6 4.8 0.00 0.05 0.00 70 1017.1
20260503225617 9 303 3.2 6.4 0.00 0.05 0.00 70 1017.1
20260503225326 9 292 3.2 6.4 0.00 0.05 0.00 70 1017.1
20260503225307 9 323 3.2 6.4 0.00 0.05 0.00 70 1017.2
20260503225151 9 18 3.2 6.4 0.00 0.05 0.00 70 1017.2
20260503225017 9 349 3.2 6.4 0.00 0.05 0.00 70 1017.2
20260503224905 9 320 3.2 6.4 0.00 0.05 0.00 70 1017.2
20260503224800 9 323 3.2 6.4 0.00 0.05 0.00 70 1017.2
20260503224634 10 313 3.2 6.4 0.00 0.05 0.00 70 1017.1
20260503224435 10 307 3.2 8.0 0.00 0.05 0.00 70 1017.2
20260503224409 10 312 3.2 8.0 0.00 0.05 0.00 70 1017.2
20260503224254 10 317 3.2 8.0 0.00 0.05 0.00 70 1017.2
20260503224115 10 309 3.2 8.0 0.00 0.05 0.00 70 1017.2
20260503223928 10 319 3.2 8.0 0.00 0.05 0.00 70 1017.3
20260503223853 10 318 3.2 8.0 0.00 0.05 0.00 70 1017.3
20260503223647 10 341 3.2 8.0 0.00 0.05 0.00 69 1017.3
20260503223454 10 314 4.8 6.4 0.00 0.05 0.00 69 1017.3
20260503223426 10 326 4.8 6.4 0.00 0.05 0.00 69 1017.3
20260503223311 10 327 4.8 8.0 0.00 0.05 0.00 69 1017.2
20260503223122 10 310 4.8 8.0 0.00 0.05 0.00 69 1017.2
20260503223015 10 342 4.8 8.0 0.00 0.05 0.00 69 1017.3
20260503222944 10 317 4.8 8.0 0.00 0.05 0.00 68 1017.2
20260503222823 10 340 4.8 8.0 0.00 0.05 0.00 68 1017.2
20260503222617 10 336 4.8 8.0 0.00 0.05 0.00 68 1017.2
20260503222554 10 325 4.8 8.0 0.00 0.05 0.00 68 1017.2
20260503222440 10 299 4.8 9.7 0.00 0.05 0.00 68 1017.3
20260503222259 10 328 4.8 9.7 0.00 0.05 0.00 68 1017.3
20260503221854 10 309 4.8 9.7 0.00 0.05 0.00 67 1017.2
20260503221702 10 322 4.8 9.7 0.00 0.05 0.00 67 1017.3
20260503221454 10 338 4.8 9.7 0.00 0.05 0.00 67 1017.3
20260503221438 10 345 6.4 9.7 0.00 0.05 0.00 67 1017.3
20260503221218 10 323 6.4 9.7 0.00 0.05 0.00 66 1017.4
20260503220958 10 322 6.4 12.9 0.00 0.05 0.00 66 1017.4
20260503220857 11 302 4.8 12.9 0.00 0.05 0.00 66 1017.4
20260503220805 11 321 4.8 12.9 0.00 0.05 0.00 66 1017.4
20260503220536 11 336 4.8 12.9 0.00 0.05 0.00 66 1017.3
20260503220322 11 327 4.8 12.9 0.00 0.05 0.00 65 1017.3
20260503220313 11 335 4.8 12.9 0.00 0.05 0.00 65 1017.3
20260503220135 11 317 4.8 12.9 0.00 0.05 0.00 65 1017.3
20260503215838 11 304 4.8 11.3 0.00 0.05 0.00 65 1017.3
20260503215729 11 292 6.4 11.3 0.00 0.05 0.00 65 1017.2
20260503215612 11 278 6.4 11.3 0.00 0.05 0.00 65 1017.2
20260503215441 11 304 6.4 11.3 0.00 0.05 0.00 64 1017.3
20260503215228 11 327 4.8 11.3 0.00 0.05 0.00 64 1017.3
20260503214849 11 294 3.2 8.0 0.00 0.05 0.00 63 1017.2
20260503214759 11 321 3.2 6.4 0.00 0.05 0.00 63 1017.3
20260503214712 11 330 1.6 6.4 0.00 0.05 0.00 63 1017.2
20260503214431 11 299 3.2 6.4 0.00 0.05 0.00 63 1017.2
20260503214215 11 300 3.2 8.0 0.00 0.05 0.00 63 1017.2
20260503214004 11 302 3.2 8.0 0.00 0.05 0.00 63 1017.2
20260503213817 11 302 3.2 8.0 0.00 0.05 0.00 62 1017.2
20260503213701 12 286 3.2 8.0 0.00 0.05 0.00 62 1017.1
20260503213558 12 315 3.2 8.0 0.00 0.05 0.00 62 1017.1
20260503213415 12 292 3.2 8.0 0.00 0.05 0.00 62 1017.2
20260503213213 12 314 3.2 6.4 0.00 0.05 0.00 62 1017.2
20260503213028 12 330 4.8 11.3 0.00 0.05 0.00 62 1017.2
20260503212824 12 325 4.8 11.3 0.00 0.05 0.00 62 1017.2
20260503212750 12 326 3.2 11.3 0.00 0.05 0.00 62 1017.2
20260503212656 12 334 3.2 11.3 0.00 0.05 0.00 61 1017.2
20260503212534 12 311 3.2 11.3 0.00 0.05 0.00 61 1017.2
20260503212135 12 280 3.2 11.3 0.00 0.05 0.00 61 1017.2
20260503211931 12 276 1.6 11.3 0.00 0.05 0.00 60 1017.2
20260503211903 18 286 8.0 16.1 0.00 0.05 0.05 40 1014.9
20260503211730 12 315 1.6 6.4 0.00 0.05 0.00 60 1017.3
20260503211638 12 315 1.6 6.4 0.00 0.05 0.00 60 1017.3
20260503211515 12 315 1.6 6.4 0.00 0.05 0.00 60 1017.2
20260503211307 12 5 1.6 6.4 0.00 0.05 0.00 60 1017.2
20260503211146 12 333 1.6 6.4 0.00 0.05 0.00 60 1017.2
20260503211111 12 331 1.6 6.4 0.00 0.05 0.00 60 1017.2
20260503211043 19 292 4.8 12.9 0.00 0.05 0.05 40 1015.3
20260503210908 12 325 1.6 6.4 0.00 0.05 0.00 59 1017.2
20260503210843 18 34 4.8 14.5 0.00 0.05 0.05 39 1015.5
20260503210707 12 313 1.6 4.8 0.00 0.05 0.00 59 1017.2
20260503210631 12 313 1.6 4.8 0.00 0.05 0.00 59 1017.2
20260503210618 18 18 6.4 16.1 0.00 0.05 0.05 40 1015.8
20260503210503 12 310 1.6 4.8 0.00 0.05 0.00 59 1017.2
20260503210332 12 283 1.6 4.8 0.00 0.05 0.00 59 1017.2
20260503210234 12 297 1.6 4.8 0.00 0.05 0.00 59 1017.2
20260503210206 12 296 1.6 4.8 0.00 0.05 0.00 59 1017.2
20260503210019 12 337 1.6 4.8 0.00 0.05 0.05 58 1017.2
20260503205855 12 355 1.6 4.8 0.00 0.05 0.05 58 1017.1
20260503205553 18 317 8.0 16.1 0.00 0.05 0.05 40 1015.9
20260503205442 13 10 1.6 4.8 0.00 0.05 0.05 58 1017.0
20260503205245 13 22 1.6 4.8 0.00 0.05 0.05 58 1017.1
20260503205123 13 22 1.6 4.8 0.00 0.05 0.05 58 1017.1
20260503205040 13 36 1.6 4.8 0.00 0.05 0.05 58 1017.1
20260503205001 18 280 9.7 19.3 0.00 0.05 0.05 40 1016.1
20260503204838 13 29 1.6 6.4 0.00 0.05 0.05 58 1017.1
20260503204646 13 44 1.6 9.7 0.00 0.05 0.05 58 1017.1
20260503204621 13 51 1.6 9.7 0.00 0.05 0.05 58 1017.1
20260503204445 13 48 1.6 9.7 0.00 0.05 0.05 58 1017.1
20260503204320 13 34 1.6 9.7 0.00 0.05 0.05 58 1017.1
20260503204220 13 42 1.6 9.7 0.00 0.05 0.05 58 1017.1
20260503204135 13 62 1.6 9.7 0.00 0.05 0.05 58 1017.1
20260503204015 13 11 1.6 9.7 0.00 0.05 0.05 58 1017.0
20260503203851 13 43 1.6 6.4 0.00 0.05 0.05 57 1017.0
20260503203534 17 74 8.0 17.7 0.00 0.05 0.05 41 1016.4
20260503203320 13 48 1.6 6.4 0.00 0.05 0.05 57 1017.0
20260503203221 13 48 1.6 6.4 0.00 0.05 0.05 57 1017.1
20260503203138 13 26 1.6 6.4 0.00 0.05 0.05 57 1017.0
20260503203009 13 46 1.6 6.4 0.00 0.05 0.05 57 1017.1
20260503202834 13 15 1.6 4.8 0.00 0.05 0.05 57 1017.0
20260503202526 17 308 9.7 17.7 0.00 0.05 0.05 40 1016.6
20260503202513 17 263 8.0 17.7 0.00 0.05 0.05 41 1016.6
20260503202419 13 74 1.6 4.8 0.00 0.05 0.05 57 1017.1
20260503202339 17 17 6.4 17.7 0.00 0.05 0.05 42 1016.7
20260503202312 17 26 6.4 12.9 0.00 0.05 0.05 43 1016.7
20260503202222 13 90 1.6 4.8 0.00 0.05 0.05 57 1017.0
20260503202120 13 86 1.6 6.4 0.00 0.05 0.05 57 1017.0
20260503202016 13 53 1.6 6.4 0.00 0.05 0.05 57 1017.0
20260503201943 17 95 4.8 16.1 0.00 0.05 0.05 43 1017.0
20260503201814 13 63 1.6 6.4 0.00 0.05 0.05 57 1017.0
20260503201803 17 321 3.2 12.9 0.00 0.05 0.05 45 1017.1
20260503201616 13 55 1.6 6.4 0.00 0.05 0.05 57 1017.0
20260503201433 13 44 1.6 6.4 0.00 0.05 0.05 57 1017.0
20260503201312 13 71 1.6 9.7 0.00 0.05 0.05 58 1017.0
20260503201221 13 78 1.6 9.7 0.00 0.05 0.05 58 1017.0
20260503201134 13 80 1.6 9.7 0.00 0.05 0.05 57 1017.0
20260503200958 13 45 1.6 9.7 0.00 0.05 0.05 57 1017.0
20260503200603 13 38 3.2 9.7 0.00 0.05 0.05 57 1017.0
20260503200410 13 40 3.2 9.7 0.00 0.05 0.05 57 1017.0
20260503200243 15 71 6.4 11.3 0.00 0.05 0.05 50 1017.6
20260503200159 13 61 3.2 6.4 0.00 0.05 0.05 57 1017.0
20260503200117 13 51 3.2 6.4 0.00 0.05 0.05 57 1016.9
20260503200001 13 65 3.2 6.4 0.00 0.05 0.05 57 1016.9
20260503195824 13 41 1.6 6.4 0.00 0.05 0.05 57 1016.8
20260503195655 13 34 1.6 6.4 0.00 0.05 0.05 57 1016.8
20260503195632 13 95 1.6 6.4 0.00 0.05 0.05 57 1016.8
20260503195518 13 95 1.6 4.8 0.00 0.05 0.05 57 1016.8
20260503195400 13 102 1.6 6.4 0.00 0.05 0.05 57 1016.9
20260503195020 13 230 6.4 16.1 0.00 0.05 0.05 64 1017.6
20260503194933 13 102 3.2 11.3 0.00 0.05 0.05 57 1016.9
20260503194924 12 281 6.4 16.1 0.00 0.05 0.05 68 1017.7
20260503194839 12 267 9.7 19.3 0.00 0.05 0.05 68 1017.8
20260503194737 13 121 3.2 11.3 0.00 0.05 0.05 57 1016.9
20260503194615 13 72 4.8 11.3 0.00 0.05 0.05 57 1016.9
20260503194544 13 90 4.8 11.3 0.00 0.05 0.05 57 1016.9
20260503194409 12 327 9.7 19.3 0.00 0.05 0.05 69 1017.8
20260503194339 13 82 4.8 11.3 0.00 0.05 0.05 57 1016.9
20260503194148 13 99 4.8 11.3 0.00 0.05 0.05 56 1016.9
20260503194056 13 111 4.8 11.3 0.00 0.05 0.05 57 1016.9
20260503193932 13 84 3.2 11.3 0.00 0.05 0.05 57 1016.9
20260503193856 10 277 1.6 6.4 0.00 0.05 0.05 80 1017.5
20260503193738 13 51 3.2 11.3 0.00 0.05 0.05 57 1016.9
20260503193600 13 98 3.2 8.0 0.00 0.05 0.05 57 1016.9
20260503193536 13 86 3.2 8.0 0.00 0.05 0.05 57 1016.8
20260503193438 9 321 4.8 9.7 0.05 0.05 0.05 77 1017.6
20260503193333 13 55 3.2 8.0 0.00 0.05 0.05 56 1016.7
20260503193141 13 51 3.2 6.4 0.00 0.05 0.05 56 1016.7
20260503193054 13 74 3.2 6.4 0.00 0.05 0.05 56 1016.7
20260503192943 13 74 3.2 6.4 0.00 0.05 0.05 56 1016.7
20260503192811 13 99 3.2 6.4 0.00 0.05 0.05 56 1016.6
20260503192655 13 92 1.6 6.4 0.00 0.05 0.05 56 1016.6
20260503192630 13 59 1.6 6.4 0.00 0.05 0.05 56 1016.6
20260503192454 13 101 1.6 6.4 0.00 0.05 0.05 56 1016.7
20260503192332 13 50 1.6 6.4 0.00 0.05 0.05 56 1016.4
20260503192305 13 65 1.6 6.4 0.00 0.05 0.05 56 1016.6
20260503192157 13 65 1.6 6.4 0.00 0.05 0.05 56 1016.4
20260503192041 14 29 3.2 6.4 0.00 0.05 0.05 56 1016.6
20260503191653 14 37 3.2 9.7 0.00 0.05 0.05 56 1016.6
20260503191537 14 87 3.2 9.7 0.00 0.05 0.05 55 1016.4
20260503191132 14 22 3.2 9.7 0.00 0.05 0.05 55 1016.6
20260503191044 14 59 3.2 9.7 0.00 0.05 0.05 55 1016.4
20260503190913 14 89 3.2 9.7 0.00 0.05 0.05 55 1016.4
20260503190741 9 294 1.6 3.2 0.00 0.00 0.00 85 1016.6
20260503190716 14 94 3.2 9.7 0.00 0.05 0.05 55 1016.3
20260503190607 14 5 1.6 6.4 0.00 0.05 0.05 55 1016.3
20260503190538 14 55 1.6 6.4 0.00 0.05 0.05 55 1016.3
20260503190415 14 64 1.6 6.4 0.00 0.05 0.05 55 1016.4
20260503190252 14 59 1.6 6.4 0.00 0.05 0.05 55 1016.4
20260503190201 14 56 1.6 6.4 0.00 0.05 0.05 55 1016.4
20260503190038 15 53 1.6 6.4 0.00 0.05 0.05 56 1016.4
20260503185916 15 68 1.6 6.4 0.00 0.05 0.05 56 1016.4
20260503185516 15 55 1.6 6.4 0.00 0.05 0.05 56 1016.4
20260503185336 15 55 1.6 6.4 0.00 0.05 0.05 57 1016.4
20260503185137 15 57 1.6 6.4 0.00 0.05 0.05 57 1016.4
20260503185017 15 44 1.6 6.4 0.00 0.05 0.05 58 1016.4
20260503184849 15 39 1.6 6.4 0.00 0.05 0.05 57 1016.4
20260503184733 15 21 1.6 4.8 0.00 0.05 0.05 57 1016.3
20260503184622 15 21 1.6 3.2 0.00 0.05 0.05 57 1016.3
20260503184430 15 13 1.6 4.8 0.00 0.05 0.05 57 1016.4
20260503184231 15 15 1.6 4.8 0.00 0.05 0.05 57 1016.3
20260503184033 15 14 1.6 4.8 0.00 0.05 0.05 56 1016.3
20260503183914 16 15 3.2 4.8 0.00 0.05 0.05 56 1016.3
20260503183516 16 14 3.2 4.8 0.00 0.05 0.05 56 1016.3
20260503183310 16 333 1.6 4.8 0.00 0.05 0.05 56 1016.3
20260503183102 16 339 1.6 4.8 0.00 0.05 0.05 55 1016.3
20260503183053 16 340 1.6 4.8 0.00 0.05 0.05 55 1016.3
20260503182917 16 315 1.6 4.8 0.00 0.05 0.05 54 1016.3
20260503182734 16 315 1.6 3.2 0.00 0.05 0.05 53 1016.3
20260503182627 16 315 1.6 3.2 0.00 0.05 0.05 52 1016.3
20260503182500 16 305 1.6 3.2 0.00 0.05 0.05 52 1016.3
20260503182327 16 305 1.6 4.8 0.00 0.05 0.05 52 1016.1
20260503182135 16 305 1.6 4.8 0.00 0.05 0.05 52 1016.0
20260503182008 16 11 1.6 4.8 0.00 0.05 0.05 52 1016.1
20260503181840 16 48 1.6 4.8 0.00 0.05 0.05 51 1015.9
20260503181745 16 53 1.6 4.8 0.00 0.05 0.05 51 1015.9
20260503181641 16 34 1.6 4.8 0.00 0.05 0.05 51 1015.9
20260503181528 17 74 0.0 4.8 0.00 0.05 0.05 50 1015.8
20260503181317 17 28 0.0 4.8 0.00 0.05 0.05 49 1015.7
20260503181043 17 16 0.0 1.6 0.00 0.05 0.05 49 1015.7
20260503180918 17 15 0.0 1.6 0.00 0.05 0.05 49 1015.7
20260503180448 17 15 0.0 1.6 0.00 0.05 0.05 49 1015.6
20260503180256 17 15 0.0 1.6 0.00 0.05 0.05 48 1015.6
20260503180117 17 15 0.0 0.0 0.00 0.05 0.05 48 1015.6
20260503180057 17 15 0.0 0.0 0.00 0.05 0.05 47 1015.6
20260503175857 17 15 0.0 0.0 0.00 0.05 0.05 47 1015.6
20260503175708 17 15 0.0 0.0 0.00 0.05 0.05 47 1015.6
20260503175557 17 16 0.0 0.0 0.00 0.05 0.05 47 1015.6
20260503175510 17 16 0.0 0.0 0.00 0.05 0.05 47 1015.6
20260503175305 17 16 0.0 0.0 0.00 0.05 0.05 47 1015.6
20260503175040 17 15 0.0 0.0 0.00 0.05 0.05 47 1015.6
20260503174811 17 15 0.0 0.0 0.00 0.05 0.05 47 1015.6
20260503174613 17 16 0.0 0.0 0.00 0.05 0.05 47 1015.6
20260503174533 17 16 0.0 0.0 0.00 0.05 0.05 47 1015.5
20260503174410 17 15 0.0 0.0 0.00 0.05 0.05 47 1015.5
20260503174209 17 15 0.0 0.0 0.00 0.05 0.05 46 1015.5
20260503174043 17 16 0.0 1.6 0.00 0.05 0.05 46 1015.4
20260503174005 17 16 0.0 1.6 0.00 0.05 0.05 46 1015.4
20260503173814 17 15 0.0 1.6 0.00 0.05 0.05 46 1015.5
20260503173644 17 15 0.0 3.2 0.00 0.05 0.05 46 1015.4
20260503173624 17 16 0.0 3.2 0.00 0.05 0.05 46 1015.4
20260503173356 17 15 0.0 3.2 0.00 0.05 0.05 46 1015.4
20260503173205 17 15 0.0 3.2 0.00 0.05 0.05 46 1015.4
20260503173056 17 16 0.0 3.2 0.00 0.05 0.05 46 1015.4
20260503172958 17 15 0.0 3.2 0.00 0.05 0.05 46 1015.4
20260503172806 17 15 0.0 3.2 0.00 0.05 0.05 46 1015.4
20260503172637 17 16 0.0 3.2 0.00 0.05 0.05 46 1015.4
20260503172614 17 15 0.0 3.2 0.00 0.05 0.05 46 1015.3
20260503172443 17 15 0.0 3.2 0.00 0.05 0.05 46 1015.3
20260503172317 17 15 0.0 3.2 0.00 0.05 0.05 45 1015.3
20260503172219 17 16 0.0 3.2 0.00 0.05 0.05 45 1015.3
20260503172131 17 16 0.0 3.2 0.00 0.05 0.05 45 1015.3
20260503172015 17 16 0.0 3.2 0.00 0.05 0.05 45 1015.2
20260503171851 17 355 0.0 1.6 0.00 0.05 0.05 44 1015.2
20260503171835 17 321 0.0 1.6 0.00 0.05 0.05 44 1015.2
20260503171700 17 322 0.0 3.2 0.00 0.05 0.05 44 1015.2
20260503171543 17 322 1.6 3.2 0.00 0.05 0.05 44 1015.2
20260503171452 17 321 1.6 3.2 0.00 0.05 0.05 44 1015.1
20260503171341 18 322 1.6 3.2 0.00 0.05 0.05 44 1015.1
20260503171219 17 327 1.6 3.2 0.00 0.05 0.05 44 1015.1
20260503170752 17 319 1.6 3.2 0.00 0.05 0.05 44 1015.1
20260503170617 17 295 1.6 3.2 0.00 0.05 0.05 44 1015.1
20260503170454 17 295 1.6 3.2 0.00 0.05 0.05 44 1015.0
20260503170414 17 295 1.6 3.2 0.00 0.05 0.05 44 1015.1
20260503170251 17 295 1.6 3.2 0.00 0.05 0.05 44 1015.1
20260503170106 17 295 1.6 3.2 0.00 0.05 0.05 44 1015.0
20260503160200 18 292 6.4 12.9 0.00 0.05 0.05 42 1014.9
20260503151013 18 325 8.0 16.1 0.00 0.05 0.05 41 1014.9
20260503150822 18 338 8.0 16.1 0.00 0.05 0.05 41 1014.9
20260503150633 19 342 8.0 16.1 0.00 0.05 0.05 41 1015.0
20260503150530 19 288 8.0 16.1 0.00 0.05 0.05 41 1015.0
20260503150424 19 327 8.0 16.1 0.00 0.05 0.05 41 1015.0
20260503150239 19 313 8.0 16.1 0.00 0.05 0.05 41 1015.1
20260503140236 19 341 4.8 14.5 0.00 0.05 0.05 40 1015.5
20260503131242 18 96 8.0 16.1 0.00 0.05 0.05 39 1015.9
20260503131046 18 37 8.0 16.1 0.00 0.05 0.05 39 1015.8
20260503130926 18 311 8.0 16.1 0.00 0.05 0.05 40 1015.9
20260503130452 18 320 8.0 16.1 0.00 0.05 0.05 40 1015.9
20260503130311 18 19 8.0 16.1 0.00 0.05 0.05 39 1015.8
20260503130144 18 330 8.0 16.1 0.00 0.05 0.05 40 1015.9
20260503130125 18 327 8.0 16.1 0.00 0.05 0.05 40 1015.9
20260503120110 17 303 8.0 20.9 0.00 0.05 0.05 42 1016.4
20260503110715 17 25 6.4 17.7 0.00 0.05 0.05 42 1016.7
20260503110641 17 325 6.4 17.7 0.00 0.05 0.05 43 1016.7
20260503110528 17 0 6.4 17.7 0.00 0.05 0.05 43 1016.7
20260503110332 17 321 6.4 12.9 0.00 0.05 0.05 43 1016.7
20260503100228 17 95 4.8 12.9 0.00 0.05 0.05 45 1017.2
20260503090355 15 14 6.4 16.1 0.00 0.05 0.05 52 1017.6
20260503090335 15 307 6.4 16.1 0.00 0.05 0.05 52 1017.5
20260503090130 15 98 8.0 16.1 0.00 0.05 0.05 53 1017.5
20260503081338 12 322 6.4 16.1 0.00 0.05 0.05 68 1017.7
20260503081132 12 317 6.4 16.1 0.00 0.05 0.05 68 1017.8
20260503080959 12 286 6.4 16.1 0.00 0.05 0.05 68 1017.9
20260503080935 12 267 6.4 16.1 0.00 0.05 0.05 68 1017.9
20260503080817 12 267 6.4 16.1 0.00 0.05 0.05 68 1017.8
20260503080636 12 288 6.4 16.1 0.00 0.05 0.05 68 1017.8
20260503080521 12 257 8.0 16.1 0.00 0.05 0.05 68 1017.8
20260503080354 12 299 8.0 16.1 0.00 0.05 0.05 68 1017.8
20260503080234 12 309 8.0 17.7 0.00 0.05 0.05 68 1017.8
20260503080107 12 298 9.7 19.3 0.00 0.05 0.05 68 1017.8
20260503072751 11 286 8.0 14.5 0.00 0.05 0.05 69 1017.8
20260503072610 11 273 8.0 14.5 0.00 0.05 0.05 70 1017.8
20260503072458 11 309 6.4 14.5 0.00 0.05 0.05 70 1017.8
20260503072403 11 265 6.4 14.5 0.00 0.05 0.05 71 1017.8
20260503072226 11 294 6.4 14.5 0.00 0.05 0.05 72 1017.8
20260503072046 11 272 6.4 12.9 0.00 0.05 0.05 72 1017.8
20260503072029 11 281 6.4 12.9 0.00 0.05 0.05 72 1017.8
20260503071907 11 264 6.4 14.5 0.00 0.05 0.05 73 1017.8
20260503071718 11 306 6.4 14.5 0.00 0.05 0.05 74 1017.8
20260503071623 11 275 8.0 14.5 0.00 0.05 0.05 74 1017.8
20260503071524 11 267 8.0 14.5 0.00 0.05 0.05 75 1017.7
20260503071315 11 260 6.4 14.5 0.00 0.05 0.05 76 1017.7
20260503071045 11 207 6.4 14.5 0.00 0.05 0.05 77 1017.8
20260503071017 11 276 6.4 14.5 0.00 0.05 0.05 77 1017.8
20260503070752 11 279 4.8 14.5 0.00 0.05 0.05 79 1017.7
20260503070505 11 298 3.2 12.9 0.00 0.05 0.05 80 1017.7
20260503070419 11 304 3.2 12.9 0.00 0.05 0.05 80 1017.7
20260503070314 11 280 3.2 11.3 0.00 0.05 0.05 81 1017.7
20260503070138 10 285 1.6 9.7 0.00 0.05 0.05 81 1017.7
20260503060306 10 341 3.2 8.0 0.05 0.05 0.05 77 1017.5
20260503060214 10 344 1.6 8.0 0.05 0.05 0.05 77 1017.5
20260503060110 9 11 1.6 4.8 0.05 0.05 0.05 76 1017.5
20260503055117 10 250 3.2 9.7 0.05 0.05 0.05 75 1017.2
20260503054900 10 334 3.2 16.1 0.05 0.05 0.05 75 1017.3
20260503054701 10 115 3.2 16.1 0.05 0.05 0.05 75 1017.5
20260503054610 10 89 3.2 16.1 0.05 0.05 0.05 75 1017.5
20260503054510 10 337 4.8 16.1 0.05 0.05 0.05 75 1017.5
20260503054300 10 355 6.4 16.1 0.03 0.03 0.03 75 1017.6
20260503054025 10 62 6.4 16.1 0.03 0.03 0.00 76 1017.5
20260503054004 10 87 6.4 16.1 0.03 0.03 0.00 76 1017.5
20260503053812 10 32 6.4 22.5 0.00 0.00 0.00 76 1017.5
20260503053615 10 26 6.4 22.5 0.00 0.00 0.00 76 1017.6
20260503053437 10 0 6.4 22.5 0.00 0.00 0.00 76 1017.6
20260503053310 10 10 6.4 22.5 0.00 0.00 0.00 77 1017.6
20260503053109 10 49 6.4 22.5 0.00 0.00 0.00 77 1017.5
20260503052606 10 70 6.4 22.5 0.00 0.00 0.00 78 1017.5
20260503052417 10 30 6.4 20.9 0.00 0.00 0.00 79 1017.5
20260503052128 10 19 6.4 20.9 0.00 0.00 0.00 80 1017.3
20260503052042 10 5 6.4 20.9 0.00 0.00 0.00 80 1017.2
20260503051905 10 355 6.4 20.9 0.00 0.00 0.00 80 1017.3
20260503051712 10 11 6.4 20.9 0.00 0.00 0.00 81 1017.1
20260503051548 9 28 4.8 20.9 0.00 0.00 0.00 81 1017.1
20260503051510 9 91 4.8 20.9 0.00 0.00 0.00 82 1017.1
20260503051244 9 71 4.8 11.3 0.00 0.00 0.00 82 1017.1
20260503051042 9 61 4.8 12.9 0.00 0.00 0.00 83 1017.1
20260503051000 9 57 4.8 12.9 0.00 0.00 0.00 83 1017.1
20260503050904 9 71 3.2 12.9 0.00 0.00 0.00 83 1017.0
20260503050727 9 59 1.6 12.9 0.00 0.00 0.00 84 1016.9
20260503050627 9 85 1.6 12.9 0.00 0.00 0.00 84 1016.9
20260503050554 9 65 1.6 12.9 0.00 0.00 0.00 85 1016.9
20260503050415 9 48 0.0 9.7 0.00 0.00 0.00 85 1016.8
20260503050214 9 294 1.6 3.2 0.00 0.00 0.00 85 1016.7
20260503045954 9 294 1.6 3.2 0.00 0.00 0.00 85 1016.6
20260503045815 9 294 1.6 3.2 0.00 0.00 0.00 85 1016.6
20260503045423 9 294 1.6 3.2 0.00 0.00 0.00 85 1016.6
20260503045244 9 294 0.0 3.2 0.00 0.00 0.00 85 1016.6
20260503045045 9 294 0.0 3.2 0.00 0.00 0.00 85 1016.6
20260503044917 9 294 0.0 1.6 0.00 0.00 0.00 85 1016.7
20260503044713 9 294 0.0 4.8 0.00 0.00 0.00 85 1016.7
20260503044623 9 294 1.6 4.8 0.00 0.00 0.00 85 1016.7
20260503044549 9 294 1.6 4.8 0.00 0.00 0.00 85 1016.7
20260503044419 9 294 1.6 4.8 0.00 0.00 0.00 85 1016.6
20260503044207 9 294 1.6 4.8 0.00 0.00 0.00 85 1016.7
20260503044049 9 294 1.6 4.8 0.00 0.00 0.00 85 1016.4
20260503043912 9 285 0.0 4.8 0.00 0.00 0.00 85 1016.3
20260503043814 9 213 0.0 4.8 0.00 0.00 0.00 85 1016.3
20260503043650 9 260 0.0 3.2 0.00 0.00 0.00 85 1016.3
20260503043514 9 260 0.0 1.6 0.00 0.00 0.00 85 1016.3
20260503043314 9 260 0.0 4.8 0.00 0.00 0.00 85 1016.2
20260503043152 9 260 1.6 4.8 0.00 0.00 0.00 85 1016.2
20260503043023 9 260 1.6 4.8 0.00 0.00 0.00 85 1016.2
20260503042931 9 260 1.6 4.8 0.00 0.00 0.00 85 1016.2
20260503042839 9 260 1.6 4.8 0.00 0.00 0.00 85 1016.2
20260503042723 9 260 1.6 4.8 0.00 0.00 0.00 85 1016.2
20260503042600 9 309 0.0 4.8 0.00 0.00 0.00 85 1016.2
20260503042547 9 309 0.0 3.2 0.00 0.00 0.00 85 1016.2
20260503042335 9 309 0.0 1.6 0.00 0.00 0.00 85 1016.2
20260503042223 9 309 0.0 3.2 0.00 0.00 0.00 85 1016.2
20260503042123 9 309 0.0 3.2 0.00 0.00 0.00 85 1016.2
20260503042019 9 309 0.0 3.2 0.00 0.00 0.00 85 1016.2
20260503041848 9 309 0.0 3.2 0.00 0.00 0.00 85 1016.2
20260503041634 9 309 0.0 3.2 0.00 0.00 0.00 85 1016.2
20260503041616 9 309 1.6 3.2 0.00 0.00 0.00 85 1016.2
20260503041450 9 309 1.6 4.8 0.00 0.00 0.00 84 1016.2
20260503041259 9 309 1.6 4.8 0.00 0.00 0.00 84 1016.1
20260503041231 9 309 1.6 4.8 0.00 0.00 0.00 84 1016.1
20260503041131 9 309 1.6 4.8 0.00 0.00 0.00 84 1016.1
20260503040949 9 309 3.2 6.4 0.00 0.00 0.00 84 1016.1
20260503040814 9 309 3.2 6.4 0.00 0.00 0.00 84 1016.1
20260503040649 9 306 3.2 6.4 0.00 0.00 0.00 84 1016.1
20260503040525 9 332 4.8 6.4 0.00 0.00 0.00 84 1016.1
20260503040436 9 348 4.8 6.4 0.00 0.00 0.00 84 1016.1
20260503040328 9 307 3.2 6.4 0.00 0.00 0.00 84 1016.1
20260503040140 9 327 3.2 6.4 0.00 0.00 0.00 84 1016.2
20260503035945 9 311 3.2 6.4 0.00 0.00 0.00 84 1016.1
20260503035921 9 291 3.2 6.4 0.00 0.00 0.00 84 1016.1
20260503035738 9 328 3.2 6.4 0.00 0.00 0.00 84 1016.1
20260503035602 9 322 3.2 6.4 0.00 0.00 0.00 84 1016.1
20260503035207 9 315 3.2 6.4 0.00 0.00 0.00 84 1016.1
20260503035032 9 325 1.6 6.4 0.00 0.00 0.00 84 1015.9
20260503034816 9 284 1.6 4.8 0.00 0.00 0.00 85 1015.9
20260503034743 9 288 1.6 4.8 0.00 0.00 0.00 85 1015.9
20260503034522 9 291 1.6 4.8 0.00 0.00 0.00 85 1015.9
20260503034334 9 309 1.6 6.4 0.00 0.00 0.00 85 1015.9
20260503034305 9 326 1.6 6.4 0.00 0.00 0.00 85 1016.0
20260503034207 9 298 1.6 6.4 0.00 0.00 0.00 85 1016.0
20260503034036 9 298 1.6 6.4 0.00 0.00 0.00 85 1015.9
20260503033831 9 304 1.6 6.4 0.00 0.00 0.00 85 1016.0
20260503033747 9 304 1.6 6.4 0.00 0.00 0.00 85 1016.0
20260503033613 8 289 1.6 8.0 0.00 0.00 0.00 85 1015.9
20260503033413 8 22 3.2 9.7 0.00 0.00 0.00 85 1015.9
20260503033351 8 23 3.2 9.7 0.00 0.00 0.00 85 1015.9
20260503033144 8 27 3.2 11.3 0.00 0.00 0.00 85 1015.8
20260503032947 8 21 3.2 12.9 0.00 0.00 0.00 85 1015.8
20260503032839 8 42 4.8 12.9 0.00 0.00 0.00 85 1015.8
20260503032754 8 11 4.8 12.9 0.00 0.00 0.00 85 1015.8
20260503032343 8 5 3.2 12.9 0.00 0.00 0.00 85 1015.7
20260503032124 8 57 3.2 12.9 0.00 0.00 0.00 85 1015.7
20260503031904 8 72 3.2 12.9 0.00 0.00 0.00 85 1015.7
20260503031542 8 63 4.8 11.3 0.00 0.00 0.00 85 1015.7
20260503031346 8 91 3.2 11.3 0.00 0.00 0.00 85 1015.7
20260503031229 8 62 3.2 11.3 0.00 0.00 0.00 85 1015.7
20260503031041 8 24 4.8 11.3 0.00 0.00 0.00 85 1015.7
20260503030830 8 63 3.2 11.3 0.00 0.00 0.00 85 1015.7
20260503030819 8 78 3.2 11.3 0.00 0.00 0.00 85 1015.7
20260503030619 8 64 3.2 11.3 0.00 0.00 0.00 85 1015.7
20260503030350 8 66 3.2 11.3 0.00 0.00 0.00 85 1015.7
20260503030132 8 38 3.2 11.3 0.00 0.00 0.00 85 1015.9
20260503030035 8 46 3.2 11.3 0.00 0.00 0.00 85 1015.9
20260503025844 8 75 3.2 11.3 0.00 0.00 0.00 85 1015.9
20260503025631 8 59 1.6 11.3 0.00 0.00 0.00 85 1015.9
20260503025615 8 44 1.6 11.3 0.00 0.00 0.00 85 1015.9
20260503025435 8 62 1.6 11.3 0.00 0.00 0.00 85 1015.9
20260503025221 8 74 1.6 11.3 0.00 0.00 0.00 85 1015.9
20260503025125 8 284 0.0 4.8 0.00 0.00 0.00 85 1015.9
20260503025037 8 284 0.0 4.8 0.00 0.00 0.00 85 1015.9
20260503024827 8 283 0.0 3.2 0.00 0.00 0.00 85 1015.9
20260503024611 8 283 0.0 3.2 0.00 0.00 0.00 85 1015.9
20260503024546 8 284 0.0 3.2 0.00 0.00 0.00 85 1015.9
20260503024414 8 283 0.0 3.2 0.00 0.00 0.00 84 1015.9
20260503024227 8 284 0.0 3.2 0.00 0.00 0.00 84 1015.9
20260503024126 8 283 0.0 3.2 0.00 0.00 0.00 84 1015.9
20260503024036 8 284 0.0 3.2 0.00 0.00 0.00 84 1016.0
20260503023817 8 283 0.0 3.2 0.00 0.00 0.00 84 1016.0
20260503023553 8 319 0.0 0.0 0.00 0.00 0.00 84 1016.0
20260503023530 8 325 0.0 0.0 0.00 0.00 0.00 84 1016.0
20260503023326 8 327 0.0 1.6 0.00 0.00 0.00 84 1016.0
20260503023102 8 314 0.0 3.2 0.00 0.00 0.00 84 1015.9
20260503023003 8 314 0.0 3.2 0.00 0.00 0.00 84 1015.9
20260503022847 8 314 0.0 3.2 0.00 0.00 0.00 84 1015.9
20260503022653 8 315 0.0 3.2 0.00 0.00 0.00 84 1015.8
20260503022511 8 314 0.0 3.2 0.00 0.00 0.00 84 1015.9
20260503022447 8 314 0.0 3.2 0.00 0.00 0.00 84 1015.9
20260503022310 8 315 0.0 3.2 0.00 0.00 0.00 84 1015.9
20260503022035 8 298 0.0 3.2 0.00 0.00 0.00 84 1015.8
20260503021641 8 329 0.0 1.6 0.00 0.00 0.00 83 1015.9